Location: Drocourt
(49.0571°N, 1.7669°E)
Time: 21:05:34
(UTC+00:00)

S-56A Canister/Altair - Pass Details

Date: 20 April 2024
Orbit: 638 x 2488 km, 38.9° (Epoch: 20 May)

Event Time Altitude Azimuth Distance (km) Brightness Sun altitude
Rises 16:53:02 0° 225° (SW) 3,178 11.5 18.5°
Reaches altitude 10° 16:55:30 10° 212° (SSW) 2,406 10.7 18.1°
Maximum altitude 17:00:10 27° 156° (SSE) 1,813 9.4 17.4°
Drops below altitude 10° 17:06:24 10° 102° (ESE) 3,281 10.2 16.3°
Sets 17:10:23 0° 92° (E) 4,599 10.9 15.7°
